QPF
0.00 0.00 0.00 0.00 0.00 0.00 0.00 0.00 0.00 0.00 0.00 0.00 0.00 0.00 0.00 0.00 0.00 0.00 0.00 0.00 0.00 0.00 0.00 0.00 0.00 0.00 0.00 0.00 0.00 0.00 0.00 0.00 0.00 0.00 0.00 0.00 0.00 0.00 0.00 0.00 0.00 0.00 0.00
0.00 0.00 0.00 0.00 0.00 0.00 0.00 0.00 0.00 0.00 0.00 0.00 0.00 0.00 0.00 0.00 0.00 0.00 0.00 0.00 0.00 0.00 0.00 0.00 0.00 0.00 0.00 0.00 0.00 0.00 0.00 0.00 0.00 0.00 0.00 0.00 0.00 0.00 0.00 0.00 0.00 0.00 0.00
0.00 0.00 0.00 0.00 0.00 0.00 0.00 0.00 0.00 0.00 0.00 0.00 0.00 0.00 0.00 0.00 0.00 0.00 0.00 0.00 0.00 0.00 0.00 0.00 0.00 0.00 0.00 0.00 0.00 0.00 0.00 0.00 0.00 0.00 0.00 0.00 0.00 0.00 0.00 0.00 0.00 0.00 0.00
0.00 0.00 0.00 0.00 0.00 0.00 0.00 0.00 0.00 0.00 0.00 0.00 0.00 0.00 0.00 0.00 0.00 0.00 0.00 0.00 0.00 0.00 0.00 0.00 0.00 0.00 0.00 0.00 0.00 0.00 0.00 0.00 0.00 0.00 0.00 0.01 0.01 0.00 0.00 0.00 0.00 0.00 0.00
0.00 0.00 0.00 0.00 0.00 0.00 0.00 0.00 0.00 0.00 0.00 0.00 0.00 0.00 0.00 0.00 0.00 0.00 0.00 0.00 0.00 0.00 0.00 0.00 0.00 0.00 0.00 0.00 0.00 0.00 0.00 0.00 0.00 0.00 0.00 0.01 0.01 0.01 0.01 0.00 0.00 0.00 0.00
0.00 0.00 0.00 0.00 0.00 0.00 0.00 0.00 0.00 0.00 0.00 0.00 0.00 0.00 0.00 0.00 0.00 0.00 0.00 0.00 0.00 0.00 0.00 0.00 0.00 0.00 0.00 0.00 0.00 0.00 0.00 0.00 0.00 0.00 0.00 0.00 0.01 0.01 0.03 0.02 0.01 0.00 0.00
0.00 0.00 0.00 0.00 0.00 0.00 0.00 0.00 0.00 0.00 0.00 0.00 0.00 0.00 0.00 0.00 0.00 0.00 0.00 0.00 0.00 0.00 0.00 0.00 0.00 0.00 0.00 0.00 0.00 0.00 0.00 0.00 0.00 0.00 0.00 0.01 0.02 0.02 0.04 0.04 0.03 0.01 0.01
0.00 0.00 0.00 0.00 0.00 0.00 0.00 0.00 0.00 0.00 0.00 0.00 0.00 0.00 0.00 0.00 0.00 0.00 0.00 0.00 0.00 0.00 0.00 0.00 0.00 0.00 0.00 0.00 0.00 0.00 0.00 0.00 0.00 0.00 0.00 0.00 0.01 0.02 0.05 0.05 0.04 0.02 0.01
0.00 0.00 0.00 0.00 0.00 0.00 0.00 0.00 0.00 0.00 0.00 0.00 0.00 0.00 0.00 0.00 0.00 0.00 0.00 0.00 0.00 0.00 0.00 0.00 0.00 0.00 0.00 0.00 0.00 0.00 0.00 0.00 0.00 0.00 0.00 0.00 0.01 0.04 0.07 0.06 0.04 0.03 0.02
0.00 0.00 0.00 0.00 0.00 0.00 0.00 0.00 0.00 0.00 0.00 0.00 0.00 0.00 0.00 0.00 0.00 0.00 0.00 0.00 0.00 0.00 0.00 0.00 0.00 0.00 0.00 0.00 0.00 0.00 0.00 0.00 0.00 0.00 0.00 0.00 0.01 0.06 0.09 0.06 0.04 0.03 0.02
0.00 0.00 0.00 0.00 0.00 0.00 0.00 0.00 0.00 0.00 0.00 0.00 0.00 0.00 0.00 0.00 0.00 0.00 0.00 0.00 0.00 0.00 0.00 0.00 0.00 0.00 0.00 0.00 0.00 0.00 0.00 0.00 0.00 0.00 0.00 0.01 0.02 0.06 0.07 0.06 0.04 0.03 0.02
0.00 0.00 0.00 0.00 0.00 0.00 0.00 0.00 0.00 0.00 0.00 0.00 0.00 0.00 0.00 0.00 0.00 0.00 0.00 0.00 0.00 0.00 0.00 0.00 0.00 0.00 0.00 0.00 0.01 0.02 0.00 0.00 0.00 0.01 0.01 0.01 0.03 0.06 0.07 0.05 0.03 0.02 0.02
0.00 0.00 0.00 0.00 0.00 0.00 0.00 0.00 0.00 0.00 0.00 0.00 0.00 0.00 0.00 0.00 0.00 0.00 0.00 0.00 0.00 0.00 0.00 0.00 0.00 0.00 0.00 0.00 0.00 0.00 0.00 0.00 0.01 0.01 0.01 0.01 0.02 0.04 0.05 0.04 0.03 0.02 0.01
0.00 0.00 0.00 0.00 0.00 0.00 0.00 0.00 0.00 0.00 0.00 0.00 0.00 0.00 0.00 0.00 0.00 0.00 0.00 0.00 0.00 0.00 0.00 0.00 0.00 0.00 0.00 0.00 0.00 0.00 0.01 0.01 0.01 0.03 0.03 0.01 0.01 0.02 0.05 0.05 0.04 0.03 0.02
0.00 0.00 0.00 0.00 0.00 0.00 0.00 0.00 0.00 0.00 0.00 0.00 0.00 0.00 0.00 0.00 0.00 0.00 0.00 0.00 0.00 0.00 0.00 0.00 0.00 0.00 0.00 0.00 0.01 0.01 0.01 0.02 0.02 0.03 0.03 0.01 0.01 0.01 0.03 0.08 0.07 0.05 0.03
0.00 0.00 0.00 0.00 0.00 0.01 0.01 0.00 0.00 0.00 0.00 0.00 0.00 0.00 0.00 0.01 0.01 0.01 0.00 0.00 0.00 0.00 0.00 0.00 0.01 0.01 0.01 0.01 0.01 0.02 0.03 0.03 0.03 0.04 0.04 0.02 0.02 0.02 0.03 0.08 0.10 0.07 0.06
0.02 0.02 0.01 0.02 0.02 0.04 0.06 0.05 0.02 0.01 0.01 0.01 0.01 0.02 0.02 0.02 0.03 0.03 0.01 0.01 0.01 0.01 0.01 0.01 0.01 0.02 0.02 0.02 0.03 0.04 0.05 0.05 0.05 0.06 0.05 0.05 0.04 0.03 0.04 0.07 0.09 0.07 0.07
0.04 0.05 0.05 0.08 0.11 0.11 0.11 0.08 0.08 0.07 0.03 0.02 0.02 0.02 0.03 0.04 0.05 0.06 0.05 0.03 0.03 0.03 0.03 0.03 0.04 0.05 0.05 0.07 0.07 0.06 0.08 0.09 0.08 0.08 0.07 0.08 0.07 0.05 0.05 0.09 0.08 0.06 0.06
0.07 0.13 0.16 0.19 0.21 0.19 0.15 0.13 0.13 0.11 0.07 0.05 0.05 0.05 0.07 0.10 0.15 0.16 0.13 0.09 0.08 0.08 0.08 0.09 0.11 0.13 0.14 0.14 0.13 0.11 0.11 0.12 0.12 0.11 0.11 0.11 0.12 0.10 0.08 0.05 0.06 0.05 0.05
0.13 0.20 0.26 0.30 0.32 0.38 0.37 0.30 0.23 0.17 0.14 0.15 0.13 0.12 0.13 0.18 0.24 0.24 0.20 0.19 0.20 0.20 0.19 0.20 0.19 0.23 0.25 0.24 0.21 0.15 0.14 0.12 0.12 0.15 0.14 0.14 0.12 0.11 0.12 0.09 0.05 0.04 0.05
0.16 0.23 0.28 0.31 0.27 0.28 0.34 0.37 0.37 0.31 0.27 0.23 0.19 0.18 0.19 0.17 0.22 0.32 0.31 0.31 0.35 0.35 0.29 0.27 0.28 0.28 0.24 0.25 0.23 0.15 0.11 0.08 0.08 0.10 0.10 0.12 0.15 0.15 0.17 0.15 0.12 0.09 0.05
0.08 0.14 0.21 0.20 0.18 0.18 0.24 0.30 0.29 0.24 0.16 0.14 0.15 0.17 0.21 0.25 0.29 0.38 0.42 0.42 0.43 0.40 0.36 0.34 0.33 0.29 0.23 0.23 0.23 0.22 0.14 0.09 0.06 0.07 0.10 0.15 0.20 0.21 0.17 0.13 0.11 0.11 0.09
0.02 0.03 0.04 0.05 0.08 0.09 0.11 0.13 0.16 0.17 0.13 0.11 0.13 0.16 0.19 0.27 0.32 0.40 0.46 0.46 0.43 0.42 0.39 0.34 0.32 0.26 0.20 0.20 0.21 0.22 0.16 0.10 0.08 0.11 0.17 0.23 0.33 0.33 0.24 0.18 0.14 0.10 0.08
0.00 0.01 0.01 0.02 0.03 0.04 0.04 0.05 0.07 0.08 0.09 0.13 0.18 0.17 0.15 0.18 0.21 0.26 0.30 0.35 0.37 0.40 0.36 0.30 0.28 0.23 0.21 0.17 0.19 0.20 0.19 0.15 0.14 0.13 0.16 0.22 0.29 0.33 0.26 0.20 0.18 0.15 0.10
0.00 0.00 0.01 0.01 0.01 0.01 0.01 0.02 0.02 0.04 0.06 0.08 0.12 0.11 0.09 0.09 0.11 0.15 0.20 0.24 0.26 0.26 0.24 0.24 0.25 0.24 0.20 0.17 0.20 0.24 0.26 0.23 0.20 0.17 0.12 0.13 0.17 0.25 0.27 0.21 0.13 0.09 0.06
0.00 0.00 0.00 0.00 0.00 0.00 0.00 0.00 0.01 0.01 0.02 0.03 0.05 0.06 0.07 0.08 0.09 0.11 0.14 0.16 0.19 0.22 0.23 0.25 0.27 0.25 0.23 0.24 0.25 0.25 0.24 0.23 0.21 0.21 0.18 0.13 0.11 0.12 0.16 0.17 0.15 0.11 0.08
MSLP
1012.36 1012.01 1011.88 1012.00 1012.35 1012.84 1013.36 1013.80 1014.11 1014.25 1014.25 1014.18 1014.12 1014.12 1014.22 1014.41 1014.66 1014.93 1015.15 1015.29 1015.36 1015.35 1015.31 1015.28 1015.28 1015.33 1015.41 1015.52 1015.62 1015.70 1015.75 1015.77 1015.78 1015.78 1015.79 1015.81 1015.86 1015.91 1015.96 1016.01 1016.06 1016.11 1016.17
1011.95 1011.76 1011.77 1012.00 1012.42 1012.94 1013.45 1013.87 1014.15 1014.27 1014.28 1014.23 1014.21 1014.26 1014.40 1014.63 1014.90 1015.15 1015.35 1015.47 1015.51 1015.48 1015.44 1015.41 1015.41 1015.46 1015.55 1015.64 1015.73 1015.79 1015.83 1015.84 1015.84 1015.85 1015.87 1015.90 1015.95 1016.00 1016.05 1016.08 1016.12 1016.16 1016.22
1011.51 1011.45 1011.58 1011.91 1012.39 1012.93 1013.44 1013.84 1014.11 1014.23 1014.25 1014.24 1014.27 1014.37 1014.55 1014.79 1015.05 1015.28 1015.45 1015.53 1015.54 1015.50 1015.46 1015.43 1015.45 1015.51 1015.59 1015.67 1015.74 1015.78 1015.80 1015.80 1015.81 1015.83 1015.86 1015.92 1015.97 1016.03 1016.07 1016.10 1016.13 1016.17 1016.24
1011.10 1011.14 1011.36 1011.76 1012.28 1012.83 1013.34 1013.73 1013.99 1014.12 1014.17 1014.21 1014.28 1014.42 1014.63 1014.87 1015.11 1015.30 1015.42 1015.47 1015.45 1015.41 1015.38 1015.38 1015.41 1015.49 1015.57 1015.65 1015.70 1015.72 1015.72 1015.71 1015.72 1015.75 1015.80 1015.87 1015.94 1016.00 1016.04 1016.06 1016.09 1016.13 1016.22
1010.76 1010.87 1011.16 1011.60 1012.14 1012.69 1013.19 1013.57 1013.82 1013.97 1014.05 1014.13 1014.25 1014.42 1014.64 1014.87 1015.07 1015.22 1015.29 1015.30 1015.27 1015.24 1015.23 1015.26 1015.34 1015.44 1015.53 1015.60 1015.63 1015.64 1015.62 1015.60 1015.61 1015.65 1015.71 1015.79 1015.87 1015.92 1015.95 1015.96 1015.98 1016.03 1016.13
1010.54 1010.71 1011.04 1011.50 1012.05 1012.58 1013.05 1013.40 1013.65 1013.80 1013.91 1014.03 1014.18 1014.37 1014.59 1014.79 1014.96 1015.06 1015.09 1015.07 1015.04 1015.02 1015.05 1015.13 1015.25 1015.38 1015.49 1015.56 1015.58 1015.56 1015.53 1015.50 1015.50 1015.54 1015.61 1015.69 1015.76 1015.80 1015.81 1015.81 1015.81 1015.86 1015.97
1010.48 1010.68 1011.04 1011.52 1012.04 1012.54 1012.96 1013.28 1013.49 1013.64 1013.77 1013.90 1014.08 1014.28 1014.49 1014.68 1014.80 1014.86 1014.85 1014.82 1014.78 1014.79 1014.86 1014.98 1015.14 1015.31 1015.44 1015.51 1015.52 1015.49 1015.44 1015.39 1015.39 1015.42 1015.49 1015.56 1015.62 1015.64 1015.63 1015.59 1015.58 1015.61 1015.71
1010.55 1010.80 1011.18 1011.65 1012.14 1012.59 1012.95 1013.21 1013.38 1013.51 1013.63 1013.78 1013.97 1014.18 1014.39 1014.55 1014.64 1014.66 1014.62 1014.56 1014.53 1014.56 1014.65 1014.82 1015.02 1015.21 1015.35 1015.43 1015.43 1015.39 1015.32 1015.26 1015.24 1015.26 1015.32 1015.38 1015.42 1015.42 1015.38 1015.32 1015.27 1015.28 1015.37
1010.71 1011.00 1011.40 1011.86 1012.32 1012.70 1012.99 1013.18 1013.30 1013.40 1013.51 1013.66 1013.86 1014.08 1014.28 1014.42 1014.49 1014.47 1014.41 1014.33 1014.29 1014.32 1014.43 1014.61 1014.83 1015.04 1015.19 1015.27 1015.27 1015.21 1015.12 1015.05 1015.02 1015.03 1015.07 1015.12 1015.14 1015.13 1015.07 1014.98 1014.92 1014.90 1014.97
1010.86 1011.21 1011.63 1012.08 1012.49 1012.81 1013.03 1013.14 1013.21 1013.27 1013.37 1013.52 1013.73 1013.96 1014.16 1014.29 1014.34 1014.30 1014.21 1014.10 1014.05 1014.06 1014.17 1014.35 1014.57 1014.78 1014.93 1015.00 1014.99 1014.92 1014.83 1014.74 1014.70 1014.70 1014.73 1014.76 1014.78 1014.75 1014.68 1014.59 1014.51 1014.48 1014.54
1010.92 1011.32 1011.78 1012.22 1012.58 1012.84 1012.99 1013.04 1013.06 1013.09 1013.18 1013.34 1013.56 1013.80 1014.00 1014.14 1014.17 1014.12 1014.00 1013.87 1013.79 1013.79 1013.87 1014.04 1014.24 1014.43 1014.57 1014.63 1014.61 1014.53 1014.42 1014.33 1014.26 1014.25 1014.27 1014.30 1014.31 1014.29 1014.24 1014.16 1014.09 1014.06 1014.10
1010.84 1011.28 1011.75 1012.18 1012.51 1012.72 1012.82 1012.83 1012.81 1012.83 1012.92 1013.09 1013.32 1013.57 1013.79 1013.93 1013.96 1013.89 1013.76 1013.61 1013.51 1013.48 1013.54 1013.67 1013.85 1014.02 1014.14 1014.19 1014.16 1014.07 1013.94 1013.83 1013.75 1013.71 1013.72 1013.74 1013.76 1013.76 1013.74 1013.69 1013.65 1013.64 1013.70
1010.57 1011.05 1011.52 1011.94 1012.24 1012.42 1012.48 1012.48 1012.45 1012.47 1012.57 1012.75 1013.00 1013.26 1013.48 1013.62 1013.66 1013.59 1013.45 1013.30 1013.18 1013.14 1013.18 1013.29 1013.45 1013.60 1013.70 1013.74 1013.69 1013.59 1013.45 1013.31 1013.20 1013.14 1013.12 1013.14 1013.16 1013.18 1013.19 1013.20 1013.21 1013.24 1013.31
1010.17 1010.64 1011.11 1011.50 1011.79 1011.95 1012.01 1012.01 1012.00 1012.03 1012.14 1012.34 1012.58 1012.84 1013.06 1013.20 1013.24 1013.18 1013.06 1012.92 1012.81 1012.77 1012.81 1012.92 1013.06 1013.20 1013.30 1013.33 1013.27 1013.15 1012.99 1012.82 1012.68 1012.58 1012.52 1012.52 1012.54 1012.58 1012.63 1012.68 1012.75 1012.83 1012.94
1009.70 1010.14 1010.57 1010.94 1011.21 1011.38 1011.45 1011.48 1011.50 1011.56 1011.68 1011.87 1012.10 1012.33 1012.53 1012.66 1012.69 1012.65 1012.55 1012.44 1012.37 1012.36 1012.43 1012.56 1012.72 1012.87 1012.97 1013.00 1012.95 1012.82 1012.63 1012.43 1012.23 1012.08 1011.97 1011.92 1011.93 1011.97 1012.05 1012.15 1012.26 1012.40 1012.55
1009.27 1009.65 1010.03 1010.36 1010.62 1010.80 1010.91 1010.98 1011.03 1011.11 1011.23 1011.39 1011.57 1011.75 1011.90 1011.99 1012.01 1011.98 1011.92 1011.87 1011.86 1011.91 1012.03 1012.21 1012.41 1012.59 1012.72 1012.77 1012.72 1012.58 1012.38 1012.14 1011.89 1011.67 1011.50 1011.40 1011.36 1011.38 1011.46 1011.58 1011.74 1011.92 1012.10
1008.98 1009.28 1009.59 1009.88 1010.13 1010.33 1010.48 1010.59 1010.68 1010.76 1010.85 1010.95 1011.05 1011.14 1011.21 1011.24 1011.23 1011.21 1011.19 1011.20 1011.27 1011.40 1011.60 1011.85 1012.10 1012.33 1012.50 1012.58 1012.55 1012.42 1012.21 1011.94 1011.64 1011.36 1011.12 1010.94 1010.84 1010.82 1010.88 1011.00 1011.17 1011.37 1011.58
1008.90 1009.10 1009.33 1009.58 1009.82 1010.04 1010.22 1010.36 1010.46 1010.53 1010.57 1010.58 1010.58 1010.55 1010.50 1010.44 1010.39 1010.37 1010.38 1010.46 1010.61 1010.83 1011.11 1011.43 1011.75 1012.04 1012.26 1012.38 1012.38 1012.28 1012.07 1011.79 1011.46 1011.12 1010.82 1010.57 1010.39 1010.31 1010.32 1010.42 1010.57 1010.77 1010.99
1009.03 1009.13 1009.28 1009.48 1009.71 1009.93 1010.14 1010.30 1010.40 1010.44 1010.40 1010.31 1010.16 1010.00 1009.82 1009.67 1009.56 1009.51 1009.55 1009.68 1009.90 1010.19 1010.55 1010.93 1011.31 1011.65 1011.92 1012.09 1012.15 1012.08 1011.91 1011.64 1011.30 1010.94 1010.58 1010.26 1010.02 1009.86 1009.81 1009.85 1009.98 1010.15 1010.36
1009.34 1009.35 1009.43 1009.58 1009.77 1010.00 1010.21 1010.37 1010.45 1010.44 1010.32 1010.11 1009.83 1009.53 1009.23 1008.97 1008.80 1008.72 1008.76 1008.92 1009.18 1009.52 1009.92 1010.34 1010.76 1011.14 1011.45 1011.67 1011.79 1011.78 1011.66 1011.44 1011.13 1010.76 1010.38 1010.02 1009.72 1009.50 1009.37 1009.35 1009.42 1009.56 1009.74
1009.74 1009.68 1009.69 1009.79 1009.95 1010.16 1010.35 1010.50 1010.56 1010.49 1010.30 1009.98 1009.59 1009.17 1008.76 1008.41 1008.17 1008.05 1008.08 1008.23 1008.49 1008.84 1009.24 1009.67 1010.10 1010.49 1010.83 1011.10 1011.27 1011.35 1011.31 1011.16 1010.91 1010.59 1010.22 1009.84 1009.50 1009.22 1009.03 1008.94 1008.95 1009.05 1009.20
1010.14 1010.02 1009.98 1010.02 1010.15 1010.33 1010.50 1010.63 1010.65 1010.54 1010.29 1009.91 1009.44 1008.93 1008.44 1008.02 1007.72 1007.56 1007.54 1007.66 1007.88 1008.18 1008.54 1008.93 1009.32 1009.70 1010.06 1010.37 1010.61 1010.77 1010.83 1010.79 1010.63 1010.39 1010.07 1009.71 1009.36 1009.05 1008.81 1008.66 1008.61 1008.65 1008.77
1010.42 1010.28 1010.20 1010.21 1010.30 1010.44 1010.59 1010.69 1010.69 1010.56 1010.28 1009.87 1009.36 1008.82 1008.29 1007.83 1007.48 1007.26 1007.18 1007.22 1007.35 1007.56 1007.83 1008.13 1008.46 1008.80 1009.15 1009.49 1009.80 1010.06 1010.24 1010.32 1010.29 1010.15 1009.91 1009.61 1009.28 1008.96 1008.69 1008.50 1008.41 1008.40 1008.48
1010.55 1010.40 1010.30 1010.28 1010.34 1010.45 1010.57 1010.65 1010.65 1010.52 1010.26 1009.86 1009.37 1008.84 1008.31 1007.83 1007.44 1007.15 1006.97 1006.89 1006.90 1006.97 1007.10 1007.28 1007.51 1007.79 1008.13 1008.49 1008.87 1009.23 1009.54 1009.76 1009.87 1009.85 1009.72 1009.50 1009.22 1008.93 1008.66 1008.45 1008.32 1008.28 1008.32
1010.50 1010.37 1010.27 1010.24 1010.27 1010.35 1010.46 1010.53 1010.55 1010.45 1010.23 1009.89 1009.46 1008.97 1008.46 1007.97 1007.54 1007.16 1006.87 1006.64 1006.47 1006.37 1006.33 1006.36 1006.48 1006.70 1007.01 1007.40 1007.84 1008.30 1008.73 1009.09 1009.35 1009.47 1009.46 1009.35 1009.15 1008.91 1008.67 1008.47 1008.33 1008.26 1008.27
1010.30 1010.21 1010.13 1010.09 1010.11 1010.18 1010.28 1010.36 1010.41 1010.37 1010.22 1009.97 1009.61 1009.18 1008.71 1008.21 1007.71 1007.24 1006.79 1006.38 1006.02 1005.72 1005.50 1005.38 1005.39 1005.53 1005.82 1006.23 1006.74 1007.29 1007.84 1008.33 1008.73 1008.99 1009.11 1009.11 1009.01 1008.85 1008.67 1008.50 1008.37 1008.30 1008.29
Thickness
5829 5830 5828 5825 5821 5818 5814 5812 5809 5807 5805 5802 5800 5797 5795 5792 5789 5787 5785 5782 5780 5778 5776 5774 5772 5771 5769 5767 5766 5763 5761 5760 5758 5757 5755 5753 5752 5751 5749 5748 5746 5745 5744
5838 5834 5831 5828 5824 5820 5816 5813 5810 5807 5805 5803 5800 5797 5795 5792 5789 5787 5785 5783 5781 5779 5777 5775 5773 5771 5769 5767 5765 5763 5761 5760 5758 5756 5755 5753 5752 5751 5750 5749 5747 5745 5744
5841 5837 5834 5830 5826 5822 5818 5814 5811 5808 5806 5803 5800 5797 5795 5792 5790 5788 5785 5783 5781 5779 5777 5775 5773 5771 5769 5767 5765 5763 5761 5760 5758 5756 5754 5753 5752 5751 5750 5749 5747 5745 5744
5844 5839 5836 5832 5828 5824 5820 5816 5813 5810 5807 5804 5801 5798 5796 5793 5791 5788 5786 5784 5782 5780 5778 5776 5774 5772 5769 5767 5766 5764 5762 5760 5758 5756 5755 5753 5752 5751 5750 5750 5748 5746 5744
5844 5840 5837 5834 5830 5826 5821 5818 5814 5811 5808 5805 5802 5799 5797 5794 5792 5789 5787 5785 5783 5781 5779 5776 5774 5772 5770 5768 5766 5764 5763 5761 5759 5757 5755 5754 5753 5752 5751 5750 5749 5747 5745
5843 5840 5837 5834 5831 5827 5823 5819 5815 5812 5809 5806 5803 5800 5798 5795 5793 5791 5788 5786 5784 5782 5780 5778 5775 5773 5771 5769 5767 5765 5764 5762 5761 5759 5757 5755 5755 5754 5752 5751 5750 5749 5746
5843 5840 5838 5835 5831 5828 5824 5820 5816 5813 5810 5807 5804 5801 5799 5796 5794 5792 5789 5787 5785 5783 5781 5779 5777 5774 5772 5770 5768 5767 5765 5764 5763 5761 5760 5758 5757 5756 5754 5753 5752 5750 5748
5845 5841 5837 5834 5831 5828 5824 5820 5817 5813 5810 5807 5805 5802 5799 5797 5795 5792 5790 5788 5785 5783 5781 5779 5777 5776 5774 5772 5770 5768 5767 5765 5764 5764 5762 5760 5759 5758 5756 5755 5753 5752 5750
5844 5840 5837 5833 5830 5827 5823 5820 5816 5813 5810 5807 5805 5802 5800 5797 5795 5793 5791 5789 5786 5784 5782 5780 5778 5776 5775 5773 5771 5770 5768 5767 5765 5765 5764 5763 5762 5760 5758 5756 5755 5753 5752
5840 5838 5835 5832 5829 5826 5822 5819 5816 5813 5810 5807 5804 5802 5800 5797 5795 5793 5791 5789 5787 5785 5783 5781 5779 5777 5775 5773 5772 5771 5769 5768 5767 5766 5765 5765 5764 5762 5760 5759 5757 5755 5753
5836 5834 5833 5830 5828 5824 5821 5818 5815 5812 5809 5806 5804 5802 5799 5797 5795 5793 5791 5789 5787 5785 5783 5781 5779 5777 5775 5774 5772 5771 5770 5769 5768 5767 5766 5766 5766 5764 5763 5761 5759 5757 5755
5833 5832 5831 5828 5826 5822 5819 5816 5813 5810 5808 5805 5803 5801 5799 5797 5794 5792 5790 5789 5787 5785 5783 5781 5779 5777 5775 5774 5772 5771 5770 5770 5768 5767 5767 5768 5767 5767 5765 5764 5762 5760 5757
5838 5833 5831 5828 5825 5821 5818 5815 5811 5808 5806 5803 5801 5799 5797 5794 5792 5790 5789 5788 5786 5785 5782 5781 5778 5776 5775 5773 5772 5771 5770 5769 5768 5768 5769 5769 5769 5768 5767 5766 5764 5761 5759
5839 5836 5833 5829 5824 5821 5818 5814 5810 5806 5804 5801 5800 5797 5794 5792 5791 5789 5788 5786 5785 5783 5782 5779 5777 5776 5774 5772 5771 5770 5769 5768 5768 5768 5768 5769 5769 5769 5769 5767 5765 5763 5760
5839 5837 5835 5831 5825 5821 5816 5812 5808 5805 5802 5801 5798 5796 5793 5791 5790 5789 5788 5786 5784 5782 5780 5777 5775 5773 5771 5770 5769 5769 5768 5768 5767 5767 5767 5768 5768 5768 5768 5766 5764 5763 5760
5839 5835 5832 5828 5823 5818 5813 5810 5809 5805 5802 5799 5796 5794 5792 5789 5788 5786 5786 5785 5783 5781 5778 5775 5773 5770 5769 5768 5767 5767 5767 5766 5766 5766 5766 5766 5766 5766 5766 5765 5763 5762 5760
5834 5831 5827 5823 5819 5813 5808 5804 5803 5802 5800 5798 5795 5793 5790 5788 5786 5783 5782 5782 5781 5778 5775 5772 5770 5767 5765 5764 5763 5764 5763 5763 5763 5762 5762 5763 5763 5763 5763 5763 5761 5760 5759
5825 5821 5818 5817 5811 5806 5801 5797 5794 5793 5794 5793 5791 5790 5788 5786 5784 5780 5778 5777 5776 5774 5771 5768 5765 5762 5760 5758 5758 5758 5758 5758 5758 5758 5758 5758 5758 5759 5759 5759 5759 5758 5757
5813 5809 5805 5801 5796 5793 5790 5788 5785 5783 5784 5784 5783 5782 5781 5780 5778 5776 5774 5772 5769 5766 5764 5762 5759 5757 5754 5752 5752 5752 5751 5752 5752 5753 5753 5753 5753 5754 5754 5755 5755 5756 5756
5802 5797 5792 5787 5782 5779 5777 5776 5774 5774 5775 5775 5774 5774 5775 5774 5773 5771 5768 5766 5763 5758 5756 5753 5751 5750 5749 5747 5746 5745 5744 5746 5746 5746 5747 5748 5749 5750 5750 5750 5751 5752 5753
5792 5786 5781 5775 5770 5768 5765 5763 5762 5762 5765 5766 5768 5769 5770 5769 5767 5765 5762 5760 5757 5752 5750 5748 5745 5742 5741 5740 5735 5733 5736 5739 5741 5742 5743 5743 5744 5746 5746 5746 5747 5748 5749
5784 5779 5773 5768 5762 5759 5756 5755 5756 5756 5757 5759 5761 5762 5763 5762 5760 5759 5756 5755 5752 5748 5744 5742 5739 5736 5735 5734 5729 5723 5722 5727 5733 5738 5738 5738 5739 5740 5741 5742 5743 5744 5745
5776 5772 5767 5761 5756 5753 5750 5748 5747 5746 5747 5748 5749 5751 5753 5753 5753 5752 5751 5750 5748 5745 5741 5738 5735 5730 5728 5729 5727 5721 5715 5716 5721 5727 5730 5731 5732 5732 5735 5737 5738 5739 5740
5770 5766 5760 5755 5750 5747 5744 5740 5736 5733 5732 5735 5738 5740 5743 5744 5745 5745 5745 5744 5743 5741 5738 5737 5735 5730 5726 5723 5722 5721 5720 5718 5713 5713 5718 5722 5725 5726 5727 5730 5732 5733 5734
5765 5759 5754 5749 5745 5741 5738 5734 5729 5726 5725 5727 5729 5730 5732 5735 5736 5737 5738 5738 5737 5736 5735 5733 5730 5728 5724 5722 5720 5717 5714 5712 5711 5706 5706 5711 5715 5719 5720 5721 5724 5726 5727
5756 5751 5746 5741 5737 5735 5731 5728 5723 5719 5718 5717 5718 5719 5721 5724 5726 5728 5729 5729 5730 5729 5729 5728 5726 5724 5721 5720 5718 5715 5712 5708 5707 5704 5701 5702 5704 5709 5713 5715 5717 5719 5720